Location: Unspecified
(0.0000°N, 0.0000°E)
Time: 09:10:34
(UTC+00:00)

Vanguard 2 - Pass Details

Date: 21 October 2021
Orbit: 554 x 2936 km, 32.9° (Epoch: 06 December)

Event Time Altitude Azimuth Distance (km) Brightness Sun altitude
Rises 20:11:55 0° 222° (SW) 6,308 12.9 -36.1°
Reaches altitude 10° 20:16:16 10° 215° (SW) 5,503 12.3 -37.1°
Maximum altitude 20:32:28 44° 148° (SSE) 3,666 10.6 -41.0°
Enters shadow 20:33:45 43° 139° (SE) 3,667 10.6 -41.3°
Drops below altitude 10° 20:47:34 10° 82° (E) 5,205 - -44.7°
Sets 20:51:28 0° 76° (ENE) 5,960 - -45.6°
